Tracking 19149 objects as of 22-Apr-2018
HD Live streaming from Space Station
objects crossing your sky now

FENGYUN 1C DEB

Track FENGYUN 1C DEB now!
10-day predictions


NORAD ID: 31921
Int'l Code: 1999-025CLY
Perigee: 852.6 km
Apogee: 1,168.2 km
Inclination: 99.4 °
Period: 105.2 minutes
Semi major axis: 7381 km
RCS: 0.0067 m2 (small)
Launch date: May 10, 1999
Source: People's Republic of China (PRC)
Launch site: Taiyaun Space Center, China (TSC)

Note: This is SATELLITE DEBRIS
aabbcc
Your satellite tracking list
Your tracking list is empty




NASA's NSSDC Master Catalog

Two Line Element Set (TLE):
1 31921U 99025CLY 18111.73841394 +.00000154 +00000-0 +19656-3 0  9992
2 31921 099.4307 027.1207 0213832 325.0120 059.8437 13.68975987540504
Source of the keplerian elements: AFSPC